Terug naar catalogus

IRS 1D

ActiefWetenschapSSO
NORAD 24971·PAYLOAD·🇮🇳 India

Gelanceerd Sep 29, 1997 vanaf Satish Dhawan Space Centre

Loading…

Volgende Passages (komende 24 uur)

TLE

VersSource: Space-Track

Epoch: Sep 13, 2026, 22:17 UTC

1 24971U 97057A   26256.92887328  .00000101  00000-0  50753-4 0  9995
2 24971  98.8505 253.6001 0051511 327.9503  31.8552 14.35541647515341

Volg IRS 1D in realtime met AllMySat

Download on the App Store